Stations météo

réclame
Mon MeteoGroup
Pajala A, Suède (2095): Température de l'air & dewpoint: 11.06.2019 03:00:00 - 17.06.2019 03:00:00 (CEST)Pajala A, Suède (2095): Vitesse du vent & gusts: 11.06.2019 03:00:00 - 17.06.2019 03:00:00 (CEST)Pajala A, Suède (2095): Direction du vent: 11.06.2019 03:00:00 - 17.06.2019 03:00:00 (CEST)Pajala A, Suède (2095): reduced air pressure: 11.06.2019 03:00:00 - 17.06.2019 03:00:00 (CEST)Pajala A, Suède (2095): visibility: 11.06.2019 03:00:00 - 17.06.2019 03:00:00 (CEST)Pajala A, Suède (2095): Quantités de précipitations: 11.06.2019 03:00:00 - 17.06.2019 03:00:00 (CEST)
Date & Time tt [°C] td [°C] ff [km/h] ff [knt] fx [km/h] fx [knt] dd ppp [hPa] vv [km] rr [mm]
17.06.2019 03:00:00 12,0 2,2 9 5 20 11 NE 1009,6 11 0,0
17.06.2019 02:00:00 11,2 2,7 8 4 14 8 NE 1009,9 13 0,0
17.06.2019 01:00:00 13,1 2,0 8 5 22 12 ENE 1010,0 13 0,0
17.06.2019 00:00:00 14,7 1,9 10 5 18 10 ENE 1010,0 13 0,0
16.06.2019 23:00:00 14,9 2,1 5 3 22 12 ENE 1010,1 13 0,0
16.06.2019 22:00:00 17,0 1,8 12 7 27 15 ENE 1009,7 14 0,0
16.06.2019 21:00:00 19,1 0,6 14 8 26 14 ENE 1009,4 14 0,0
16.06.2019 20:00:00 20,5 1,4 12 6 20 11 NE 1009,3 14 0,0
16.06.2019 19:00:00 21,1 1,4 9 5 16 8 NE 1009,3 12 0,0
16.06.2019 18:00:00 21,8 0,9 5 3 19 10 N 1009,6 13 0,0
16.06.2019 17:00:00 21,8 2,0 8 4 24 13 NNW 1009,8 12 0,0
16.06.2019 16:00:00 21,4 1,1 5 3 21 11 N 1010,0 12 0,0
16.06.2019 15:00:00 21,8 2,0 7 4 23 12 WNW 1010,3 13 0,0
16.06.2019 14:00:00 20,8 3,0 10 5 21 11 NNW 1010,7 13 0,0
16.06.2019 13:00:00 20,6 1,4 6 4 22 12 N 1010,9 13 0,0
16.06.2019 12:00:00 19,7 1,2 5 3 20 11 NE 1011,2 15 0,0
16.06.2019 11:00:00 19,2 0,2 11 6 21 11 NNW 1011,6 14 0,0
16.06.2019 10:00:00 18,8 0,9 11 6 20 11 NNW 1011,7 15 0,0
16.06.2019 09:00:00 17,8 1,7 6 3 18 10 NNW 1011,9 14 0,0
16.06.2019 08:00:00 16,8 2,4 10 6 17 9 NW 1012,2 15 0,0
16.06.2019 07:00:00 15,6 1,7 9 5 18 10 NW 1012,2 12 0,0
16.06.2019 06:00:00 15,0 3,8 9 5 12 7 NW 1012,1 19 0,0
16.06.2019 05:00:00 13,4 2,3 6 3 12 6 NW 1012,4 15 0,0
16.06.2019 04:00:00 13,3 2,2 7 4 13 7 NNW 1012,7 13 0,0
16.06.2019 03:00:00 8,9 3,5 5 3 14 8 WNW 1013,0 14 0,0
16.06.2019 02:00:00 13,7 0,7 7 4 18 10 NW 1012,6 18 0,0
16.06.2019 01:00:00 14,6 0,8 8 4 15 8 NW 1012,3 15 0,0
16.06.2019 00:00:00 13,2 4,9 5 3 12 6 NW 1012,3 20 0,0
15.06.2019 23:00:00 13,4 5,8 5 3 13 7 NNW 1012,0 49 0,0
15.06.2019 22:00:00 15,4 4,1 6 4 10 6 SW 1011,5 14 0,0
15.06.2019 21:00:00 20,0 1,9 6 4 11 6 SSW 1011,5 15 0,0
15.06.2019 20:00:00 22,1 0,0 5 3 14 7 W 1011,8 15 0,0
15.06.2019 19:00:00 21,8 -0,9 10 5 18 10 WNW 1012,6 13 0,0
15.06.2019 18:00:00 21,7 0,2 9 5 20 11 W 1013,1 10 0,0
15.06.2019 17:00:00 21,4 0,6 8 4 22 12 W 1013,7 14 0,0
15.06.2019 16:00:00 20,4 1,8 6 4 18 10 N 1014,2 14 0,0
15.06.2019 15:00:00 19,6 2,0 5 3 16 9 NNE 1014,6 17 0,0
15.06.2019 14:00:00 18,9 2,3 5 3 14 8 N 1015,3 16 0,0
15.06.2019 13:00:00 17,9 2,2 9 5 17 9 NNE 1015,6 15 0,0
15.06.2019 12:00:00 16,9 2,9 9 5 20 11 NNW 1016,1 12 0,0
15.06.2019 11:00:00 15,2 2,4 10 6 21 11 N 1016,6 16 0,0
15.06.2019 10:00:00 14,7 3,5 8 4 18 10 N 1016,9 14 0,0
15.06.2019 09:00:00 13,4 2,0 10 5 18 10 N 1017,1 17 0,0
15.06.2019 08:00:00 12,8 2,3 9 5 18 10 NE 1017,2 14 0,0
15.06.2019 07:00:00 11,8 3,0 10 5 19 11 N 1017,4 13 0,0
15.06.2019 06:00:00 11,1 1,9 8 4 16 9 NNE 1017,4 12 0,0
15.06.2019 05:00:00 10,0 1,6 10 6 16 9 NNE 1017,6 15 0,0
15.06.2019 04:00:00 9,8 1,4 8 4 14 8 NE 1017,5 13 0,0
15.06.2019 03:00:00 9,6 1,2 6 3 21 11 NE 1017,2 8 0,0
15.06.2019 02:00:00 10,4 -0,4 11 6 17 9 N 1016,7 15 0,0
15.06.2019 01:00:00 11,6 -0,9 7 4 21 11 N 1016,3 24 0,0
15.06.2019 00:00:00 13,3 0,0 10 6 17 9 N 1015,6 12 0,0
14.06.2019 23:00:00 15,7 1,0 11 6 26 14 NNE 1014,8 14 0,0
14.06.2019 22:00:00 17,9 2,2 18 10 30 16 NE 1014,0 9 0,0
14.06.2019 21:00:00 20,6 3,8 0 0 10 6 N 1013,0 12 0,0
14.06.2019 20:00:00 21,7 0,7 6 4 11 6 NW 1013,2 13 0,0
14.06.2019 19:00:00 21,6 1,8 5 3 18 10 NNW 1013,5 8 0,0
14.06.2019 18:00:00 21,3 2,5 9 5 17 9 N 1014,0 13 0,0
14.06.2019 17:00:00 21,3 2,0 4 2 18 10 N 1014,6 15 0,0
14.06.2019 16:00:00 21,2 2,9 9 5 17 9 N 1015,3 11 0,0
14.06.2019 15:00:00 20,9 1,7 10 5 20 11 W 1016,1 12 0,0
14.06.2019 14:00:00 20,1 1,5 12 7 20 11 NW 1016,7 14 0,0
14.06.2019 13:00:00 19,5 1,5 9 5 23 12 NW 1017,5 13 0,0
14.06.2019 12:00:00 18,7 1,7 8 4 27 15 NNW 1018,4 12 0,0
14.06.2019 11:00:00 17,4 2,6 9 5 15 8 NNW 1018,8 14 0,0
14.06.2019 10:00:00 16,9 2,5 8 4 16 8 N 1019,1 17 0,0
14.06.2019 09:00:00 16,4 3,5 4 2 13 7 NNE 1019,6 14 0,0
14.06.2019 08:00:00 15,1 2,3 5 3 11 6 N 1020,4 13 0,0
14.06.2019 07:00:00 14,0 4,6 5 3 9 5 N 1020,6 15 0,0
14.06.2019 06:00:00 12,6 6,0 2 1 4 2 ENE 1021,1 13 0,0
14.06.2019 05:00:00 10,0 6,0 0 0 2 1 N 1021,6 13 0,0
14.06.2019 04:00:00 3,3 1,8 0 0 6 3 N 1022,7 17 0,0
14.06.2019 03:00:00 0,8 -0,5 3 1 4 2 SW 1022,9 14 0,0
14.06.2019 02:00:00 0,5 -0,5 0 0 5 3 N 1023,4 16 0,0
14.06.2019 01:00:00 1,7 0,5 2 1 5 3 W 1023,6 19 0,0
14.06.2019 00:00:00 3,8 2,3 0 0 3 2 N 1023,6 14 0,0
13.06.2019 23:00:00 6,4 3,6 0 0 4 2 N 1023,2 15 0,0
13.06.2019 22:00:00 10,1 3,8 0 0 6 4 N 1023,1 12 0,0
13.06.2019 21:00:00 14,7 3,2 2 1 12 6 E 1022,8 15 0,0
13.06.2019 20:00:00 15,1 1,9 5 3 10 5 ESE 1022,8 14 0,0
13.06.2019 19:00:00 14,5 3,6 3 2 8 4 ESE 1023,0 15 0,0
13.06.2019 18:00:00 14,7 2,2 6 3 13 7 E 1023,3 16 0,0
13.06.2019 17:00:00 15,2 1,7 6 3 14 8 E 1023,5 14 0,0
13.06.2019 16:00:00 15,6 1,7 5 3 14 8 S 1023,9 13 0,0
13.06.2019 15:00:00 15,0 0,4 8 4 17 9 S 1024,4 13 0,0
13.06.2019 14:00:00 15,5 1,2 5 3 22 12 SSW 1024,6 16 0,0
13.06.2019 13:00:00 15,0 1,2 7 4 25 14 SSE 1025,0 14 0,0
13.06.2019 12:00:00 14,7 1,2 8 4 29 16 S 1025,6 15 0,0
13.06.2019 11:00:00 14,4 1,0 11 6 24 13 S 1026,0 12 0,0
13.06.2019 10:00:00 13,2 1,2 10 5 23 12 S 1026,2 13 0,0
13.06.2019 09:00:00 13,0 1,0 8 4 19 10 SSW 1026,5 13 0,0
13.06.2019 08:00:00 12,2 2,1 8 5 18 10 S 1026,5 13 0,0
13.06.2019 07:00:00 10,7 1,2 9 5 17 9 SSE 1027,0 18 0,0
13.06.2019 06:00:00 8,9 1,3 5 3 10 5 S 1027,5 21 0,0
13.06.2019 05:00:00 6,3 2,9 0 0 4 2 N 1027,8 17 0,0
13.06.2019 04:00:00 6,4 1,3 4 2 8 5 SE 1028,0 17 0,0
13.06.2019 03:00:00 5,1 1,9 3 2 7 4 ESE 1028,1 19 0,0
13.06.2019 02:00:00 4,7 1,2 3 1 7 4 SSE 1028,1 15 0,0
13.06.2019 01:00:00 6,6 0,5 3 2 21 12 SSE 1028,0 12 0,0
13.06.2019 00:00:00 9,1 -0,2 10 6 28 15 S 1027,8 14 0,0
12.06.2019 23:00:00 10,3 -0,2 15 8 27 14 SSW 1027,4 13 0,0
12.06.2019 22:00:00 11,7 1,3 14 7 25 13 SSW 1027,0 13 0,0
12.06.2019 21:00:00 12,9 2,2 10 5 21 12 S 1026,5 13 0,0
12.06.2019 20:00:00 14,3 1,2 9 5 17 9 SSE 1026,3 13 0,0
12.06.2019 19:00:00 15,0 1,5 5 3 15 8 SSE 1026,4 11 0,0
12.06.2019 18:00:00 14,5 1,4 8 4 16 9 S 1026,8 13 0,0
12.06.2019 17:00:00 14,2 0,1 4 2 10 5 SSW 1027,2 10 0,0
12.06.2019 16:00:00 14,7 0,5 4 2 13 7 E 1027,5 8 0,0
12.06.2019 15:00:00 14,1 -1,5 2 1 14 7 W 1027,9 13 0,0
12.06.2019 14:00:00 13,3 -0,7 7 4 40 22 N 1028,2 14 0,0
12.06.2019 13:00:00 15,0 -0,3 9 5 19 11 S 1028,4 16 0,0
12.06.2019 12:00:00 13,9 -0,2 6 4 18 10 SSW 1029,2 13 0,0
12.06.2019 11:00:00 12,6 -1,7 6 4 21 11 SSW 1029,6 14 0,0
12.06.2019 10:00:00 12,8 -0,5 7 4 18 10 W 1029,7 14 0,0
12.06.2019 09:00:00 11,3 -1,2 5 3 19 10 SSE 1030,1 11 0,0
12.06.2019 08:00:00 9,7 -1,4 9 5 16 9 S 1030,4 31 0,0
12.06.2019 07:00:00 8,6 -1,5 6 3 11 6 SSE 1030,6 22 0,0
12.06.2019 06:00:00 6,3 2,9 2 1 4 2 SE 1031,0 29 0,0
12.06.2019 05:00:00 3,5 2,0 0 0 3 1 N 1031,3 42 0,0
12.06.2019 04:00:00 1,3 0,6 0 0 4 2 N 1031,6 47 0,0
12.06.2019 03:00:00 -0,6 -1,3 3 1 5 3 S 1031,7 35 0,0
12.06.2019 02:00:00 -1,5 -2,1 2 1 6 3 SW 1031,9 48 0,0
12.06.2019 01:00:00 -1,7 -2,3 3 1 6 3 W 1031,6 30 0,0
12.06.2019 00:00:00 -0,4 -1,2 3 2 5 3 WSW 1031,2 30 0,0
11.06.2019 23:00:00 2,5 1,2 0 0 3 1 N 1030,8 39 0,0
11.06.2019 22:00:00 5,5 2,7 0 0 5 3 N 1030,2 32 0,0
11.06.2019 21:00:00 7,0 2,2 4 2 6 3 WSW 1030,0 38 0,0
11.06.2019 20:00:00 8,2 -1,1 3 2 16 9 NNE 1030,0 33 0,0
11.06.2019 19:00:00 8,8 -1,9 5 3 15 8 NW 1029,6 27 0,0
11.06.2019 18:00:00 8,3 -2,1 9 5 21 11 N 1029,6 44 0,0
11.06.2019 17:00:00 8,0 -2,3 10 5 23 12 NNE 1029,5 49 0,0
11.06.2019 16:00:00 7,9 -2,4 13 7 25 13 NNW 1029,3 33 0,0
11.06.2019 15:00:00 7,9 -3,0 14 8 29 16 N 1029,2 41 0,0
11.06.2019 14:00:00 7,4 -3,2 16 9 31 17 NNW 1029,0 42 0,0
11.06.2019 13:00:00 6,1 -4,1 19 10 31 17 NNW 1029,0 36 0,0
11.06.2019 12:00:00 6,2 -3,5 16 8 27 15 NNW 1028,9 48 0,0
11.06.2019 11:00:00 5,1 -2,7 11 6 29 16 N 1028,6 41 0,0
11.06.2019 10:00:00 4,2 -2,7 19 10 31 17 N 1028,1 39 0,0
11.06.2019 09:00:00 4,2 -2,9 16 9 31 17 N 1027,0 38 0,0
11.06.2019 08:00:00 4,2 -2,7 16 9 34 18 NNW 1026,1 41 0,0
11.06.2019 07:00:00 4,9 -2,4 16 9 35 19 N 1025,5 50 0,0
11.06.2019 06:00:00 3,5 -2,7 21 11 41 22 N 1025,0 42 0,0
11.06.2019 05:00:00 2,9 -2,0 17 9 30 16 N 1024,1 39 0,0
11.06.2019 04:00:00 2,0 -2,1 12 7 31 17 NNW 1023,7 38 0,0
11.06.2019 03:00:00 1,9 -1,7 14 7 24 13 NNW 1022,7 43 0,0

tt = Température de l'air
td = dewpoint
ff = Vitesse du vent
fx = gusts
dd = Direction du vent
ppp = reduced air pressure
vv = visibility
rr = Quantités de précipitations

stations d'obs. à proximité